TimeCDT,TemperatureF,Dew PointF,Humidity,Sea Level PressureIn,VisibilityMPH,Wind Direction,Wind SpeedMPH,Gust SpeedMPH,PrecipitationIn,Events,Conditions,WindDirDegrees,DateUTC
12:18 AM,68.0,64.4,88,30.06,10.0,South,4.6,-,N/A,,Mostly Cloudy,190,2013-05-18 05:18:00
12:23 AM,68.0,66.2,94,30.06,10.0,South,5.8,-,N/A,,Mostly Cloudy,180,2013-05-18 05:23:00
12:28 AM,68.0,66.2,94,30.05,10.0,South,8.1,-,N/A,,Mostly Cloudy,170,2013-05-18 05:28:00
12:36 AM,68.0,66.2,94,30.04,10.0,South,8.1,-,N/A,,Overcast,170,2013-05-18 05:36:00
12:56 AM,68.0,66.2,94,30.03,10.0,South,9.2,-,N/A,,Overcast,190,2013-05-18 05:56:00
12:58 AM,68.2,66.7,95,30.03,10.0,South,10.4,-,N/A,,Overcast,190,2013-05-18 05:58:00
1:53 AM,69.8,68.0,94,30.06,10.0,SW,5.8,-,N/A,,Overcast,220,2013-05-18 06:53:00
1:58 AM,69.3,67.5,94,30.06,10.0,SSW,6.9,-,N/A,,Overcast,210,2013-05-18 06:58:00
2:18 AM,69.8,68.0,94,30.05,10.0,SSW,5.8,-,N/A,,Overcast,210,2013-05-18 07:18:00
2:28 AM,69.8,68.0,94,30.05,10.0,SSW,4.6,-,N/A,,Overcast,200,2013-05-18 07:28:00
2:33 AM,69.8,68.0,94,30.05,10.0,SSW,5.8,-,N/A,,Overcast,210,2013-05-18 07:33:00
2:38 AM,69.8,68.0,94,30.05,10.0,SW,4.6,-,N/A,,Overcast,220,2013-05-18 07:38:00
2:58 AM,69.6,67.6,93,30.05,10.0,SW,4.6,-,N/A,,Overcast,220,2013-05-18 07:58:00
3:08 AM,69.8,68.0,94,30.05,10.0,SW,4.6,-,N/A,,Overcast,220,2013-05-18 08:08:00
3:58 AM,69.8,67.8,93,30.05,10.0,SSW,4.6,-,N/A,,Overcast,200,2013-05-18 08:58:00
4:23 AM,69.8,68.0,94,30.05,10.0,SSE,4.6,-,N/A,,Overcast,160,2013-05-18 09:23:00
4:38 AM,69.8,68.0,94,30.06,10.0,South,3.5,-,N/A,,Overcast,170,2013-05-18 09:38:00
4:58 AM,69.8,68.0,94,30.06,10.0,South,4.6,-,N/A,,Overcast,190,2013-05-18 09:58:00
5:03 AM,69.8,68.0,94,30.06,10.0,South,5.8,-,N/A,,Overcast,190,2013-05-18 10:03:00
5:08 AM,69.8,68.0,94,30.06,10.0,South,5.8,-,N/A,,Overcast,190,2013-05-18 10:08:00
5:13 AM,69.8,68.0,94,30.06,10.0,South,4.6,-,N/A,,Overcast,190,2013-05-18 10:13:00
5:58 AM,69.3,67.8,95,30.08,10.0,South,3.5,-,N/A,,Mostly Cloudy,180,2013-05-18 10:58:00
6:28 AM,69.8,68.0,94,30.09,10.0,South,3.5,-,N/A,,Overcast,180,2013-05-18 11:28:00
6:38 AM,69.8,68.0,94,30.09,10.0,South,5.8,-,N/A,,Overcast,180,2013-05-18 11:38:00
6:53 AM,71.6,68.0,88,30.10,10.0,WSW,4.6,-,N/A,,Overcast,240,2013-05-18 11:53:00
6:58 AM,71.1,68.7,92,30.10,10.0,WSW,5.8,-,N/A,,Overcast,250,2013-05-18 11:58:00
7:35 AM,71.6,68.0,88,30.07,10.0,SSE,9.2,-,N/A,,Light Drizzle,150,2013-05-18 12:35:00
7:40 AM,71.6,68.0,88,30.07,10.0,SSE,6.9,-,N/A,Rain,Light Rain,150,2013-05-18 12:40:00
7:45 AM,71.6,68.0,88,30.09,10.0,South,8.1,-,N/A,Rain,Light Rain,190,2013-05-18 12:45:00
7:58 AM,71.6,69.8,94,30.10,6.0,West,6.9,-,0.00,Rain,Light Rain,270,2013-05-18 12:58:00
8:08 AM,71.6,69.8,94,30.11,10.0,SW,3.5,-,N/A,Rain-Thunderstorm,Light Rain,230,2013-05-18 13:08:00
8:12 AM,71.6,69.8,94,30.10,10.0,West,3.5,-,N/A,Thunderstorm,Overcast,280,2013-05-18 13:12:00
8:32 AM,71.6,69.8,94,30.13,10.0,WNW,5.8,-,N/A,,Overcast,290,2013-05-18 13:32:00
8:37 AM,71.6,69.8,94,30.13,10.0,WNW,5.8,-,N/A,,Overcast,290,2013-05-18 13:37:00
8:52 AM,73.4,69.8,88,30.13,10.0,West,5.8,-,N/A,,Overcast,260,2013-05-18 13:52:00
8:57 AM,73.4,69.8,88,30.13,10.0,West,5.8,-,N/A,,Overcast,260,2013-05-18 13:57:00
8:58 AM,74.1,69.8,86,30.13,10.0,West,5.8,-,0.01,,Overcast,270,2013-05-18 13:58:00
9:08 AM,73.4,69.8,88,30.12,10.0,South,8.1,-,N/A,,Mostly Cloudy,190,2013-05-18 14:08:00
9:13 AM,73.4,69.8,88,30.11,10.0,South,11.5,-,N/A,,Mostly Cloudy,190,2013-05-18 14:13:00
9:15 AM,73.4,69.8,88,30.11,6.0,SSW,10.4,-,N/A,Rain,Rain,200,2013-05-18 14:15:00
9:25 AM,71.6,69.8,94,30.11,4.0,SSW,8.1,-,N/A,Rain,Light Rain,210,2013-05-18 14:25:00
9:35 AM,71.6,69.8,94,30.12,9.0,WSW,4.6,-,N/A,Rain,Light Rain,240,2013-05-18 14:35:00
9:40 AM,71.6,69.8,94,30.12,10.0,SW,2.3,-,N/A,Rain,Light Rain,220,2013-05-18 14:40:00
9:58 AM,72.5,70.2,92,30.08,10.0,Variable,3.5,-,0.09,Rain,Light Rain,0,2013-05-18 14:58:00
10:03 AM,71.6,69.8,94,30.09,9.0,Variable,4.6,-,N/A,Rain,Light Rain,0,2013-05-18 15:03:00
10:13 AM,71.6,69.8,94,30.12,10.0,North,4.6,-,N/A,Rain,Light Rain,10,2013-05-18 15:13:00
10:23 AM,71.6,71.6,100,30.12,10.0,North,2.3,-,N/A,,Overcast,360,2013-05-18 15:23:00
10:33 AM,71.6,71.6,100,30.12,10.0,Calm,Calm,-,N/A,,Overcast,0,2013-05-18 15:33:00
10:38 AM,73.4,71.6,94,30.12,10.0,North,1.2,-,N/A,,Overcast,10,2013-05-18 15:38:00
10:53 AM,73.4,69.8,88,30.12,10.0,Variable,1.2,-,N/A,,Mostly Cloudy,0,2013-05-18 15:53:00
10:58 AM,74.3,68.7,83,30.13,10.0,Calm,Calm,-,0.00,,Mostly Cloudy,0,2013-05-18 15:58:00
11:03 AM,75.2,69.8,83,30.12,10.0,West,1.2,-,N/A,,Mostly Cloudy,280,2013-05-18 16:03:00
11:08 AM,75.2,69.8,83,30.13,10.0,Variable,2.3,-,N/A,,Mostly Cloudy,0,2013-05-18 16:08:00
11:13 AM,75.2,69.8,83,30.12,10.0,SSE,3.5,-,N/A,,Mostly Cloudy,150,2013-05-18 16:13:00
11:23 AM,75.2,69.8,83,30.13,10.0,Variable,1.2,-,N/A,,Overcast,0,2013-05-18 16:23:00
11:28 AM,75.2,69.8,83,30.13,10.0,SE,5.8,-,N/A,,Overcast,140,2013-05-18 16:28:00
11:58 AM,76.5,68.9,77,30.13,10.0,Variable,2.3,-,N/A,,Overcast,0,2013-05-18 16:58:00
12:18 PM,77.0,68.0,74,30.12,10.0,ESE,3.5,-,N/A,,Overcast,120,2013-05-18 17:18:00
12:41 PM,78.8,68.0,69,30.12,10.0,Variable,2.3,-,N/A,Rain,Light Rain,0,2013-05-18 17:41:00
12:56 PM,77.0,68.0,74,30.12,10.0,Variable,3.5,-,N/A,Rain,Light Rain,0,2013-05-18 17:56:00
12:58 PM,77.5,68.7,74,30.12,10.0,SSE,5.8,-,0.01,,Light Drizzle,160,2013-05-18 17:58:00
1:00 PM,78.8,68.0,69,30.11,10.0,Variable,2.3,-,N/A,,Mostly Cloudy,0,2013-05-18 18:00:00
1:05 PM,78.8,69.8,74,30.11,10.0,SSE,4.6,-,N/A,,Mostly Cloudy,150,2013-05-18 18:05:00
1:58 PM,81.1,67.5,63,30.09,10.0,Variable,3.5,-,0.00,,Mostly Cloudy,0,2013-05-18 18:58:00
2:58 PM,81.5,66.0,59,30.06,10.0,SSE,5.8,-,N/A,,Mostly Cloudy,160,2013-05-18 19:58:00
3:58 PM,82.8,66.6,58,30.05,10.0,Variable,3.5,-,N/A,,Mostly Cloudy,0,2013-05-18 20:58:00
4:58 PM,82.8,67.5,60,30.04,10.0,South,5.8,-,N/A,,Scattered Clouds,170,2013-05-18 21:58:00
5:58 PM,82.0,68.2,63,30.03,10.0,SSE,6.9,-,N/A,,Mostly Cloudy,160,2013-05-18 22:58:00
6:58 PM,80.4,68.7,67,30.03,10.0,SE,3.5,-,N/A,,Clear,130,2013-05-18 23:58:00
7:58 PM,77.4,68.9,75,30.04,10.0,SSE,4.6,-,N/A,,Clear,150,2013-05-19 00:58:00
8:58 PM,75.0,68.2,79,30.05,10.0,South,5.8,-,N/A,,Clear,180,2013-05-19 01:58:00
9:58 PM,73.2,66.7,80,30.07,10.0,SSW,4.6,-,N/A,,Clear,210,2013-05-19 02:58:00
10:58 PM,71.1,66.0,84,30.06,10.0,SSW,3.5,-,N/A,,Clear,210,2013-05-19 03:58:00
11:58 PM,69.8,65.8,87,30.05,10.0,South,2.3,-,N/A,,Partly Cloudy,170,2013-05-19 04:58:00